RH
8 8 10 12 13 14 13 13 14 14 15 18 22 27 31 34 38 41 43 44 43 43 41 40 39 39 39 40 41 42 43 43 43 44 44 45 46 46 46 46 44 43 40 37 35 32 29 26 23 20 18 15 13 11 9 7 6 5 5 4 4 4 3 3 4 4 4 4 4 4 5 5 6 6 8 9 11 13 15 16 17 18 20 21 23 25
10 12 14 16 17 17 15 15 17 20 24 30 36 42 46 49 51 52 54 56 57 58 59 58 57 55 53 52 51 51 50 50 50 50 51 52 53 53 53 51 48 45 42 40 37 35 33 30 28 25 23 20 18 16 13 12 10 9 7 6 5 5 4 4 3 3 3 3 3 4 4 4 5 5 6 8 10 12 14 15 16 18 19 21 23 25
14 15 17 19 19 19 18 20 24 31 39 46 52 57 60 61 61 62 63 64 65 66 66 65 62 60 57 55 53 53 54 54 55 56 56 56 56 54 52 49 46 44 42 40 39 38 36 35 33 31 28 26 23 20 18 16 14 12 11 10 8 7 6 5 4 4 4 3 3 3 3 4 4 5 5 7 9 11 14 15 16 18 20 21 23 24
17 19 20 21 21 22 23 29 36 44 53 59 64 66 67 67 67 67 68 68 68 67 66 63 60 58 55 55 55 56 58 59 59 58 56 53 51 49 47 45 44 44 44 44 43 43 41 40 38 37 35 32 30 27 24 21 18 16 14 13 12 10 9 8 7 6 5 4 4 3 3 3 4 4 5 7 8 10 12 14 17 19 21 23 24 26
20 22 22 23 25 28 33 41 49 56 62 67 69 70 70 70 70 69 69 68 67 66 64 61 59 57 57 58 59 60 60 57 54 51 48 46 44 43 43 44 46 47 48 48 48 46 45 43 42 41 41 39 38 35 33 29 25 21 18 16 15 14 13 11 10 9 8 6 5 4 4 4 4 4 5 7 9 11 13 15 18 21 23 26 28 30
22 23 24 27 31 38 45 52 58 63 67 69 70 70 70 70 70 69 68 68 67 65 63 60 59 59 60 61 61 58 54 49 45 43 41 42 43 44 46 49 51 53 54 53 51 49 46 44 43 43 43 43 43 43 41 38 34 29 25 21 18 17 16 15 14 13 11 10 8 6 5 5 5 5 6 9 11 14 16 18 21 24 27 29 32 34
23 25 28 34 41 48 55 59 63 66 69 70 70 70 69 69 69 68 68 68 66 63 59 58 59 60 62 61 57 52 46 42 40 40 41 43 46 49 53 56 58 59 58 57 54 51 49 46 44 43 43 44 45 47 47 46 43 39 34 28 24 20 18 18 17 17 15 13 11 10 8 6 6 6 8 10 14 18 21 24 26 29 31 34 36 38
25 29 35 43 50 56 60 62 66 69 72 72 71 70 69 68 68 68 67 64 60 57 55 56 59 61 61 58 52 47 42 41 41 42 44 48 51 55 59 61 61 61 60 59 57 55 53 50 48 46 46 46 48 49 51 51 50 47 43 37 31 26 22 20 19 19 18 17 15 13 11 9 8 8 10 13 17 22 27 31 34 36 39 42 44 45
29 35 43 50 56 61 63 65 68 71 73 73 72 70 68 67 66 64 61 56 53 52 54 58 60 61 59 55 50 46 43 43 43 45 48 52 56 60 62 62 61 60 59 59 58 57 56 55 53 52 51 51 52 53 54 54 54 53 50 46 40 34 27 24 21 20 20 19 18 16 14 12 11 11 13 16 21 26 33 38 42 45 48 51 53 53
35 42 50 56 61 65 67 68 69 71 72 71 70 68 66 63 60 55 51 48 48 51 57 61 62 61 57 53 50 48 46 45 46 49 52 56 59 61 62 61 60 60 59 59 58 58 58 59 58 58 57 57 57 57 58 58 58 57 56 52 48 41 35 29 25 23 22 21 20 19 17 16 15 16 18 22 27 33 39 45 50 54 57 59 60 61
42 49 57 62 65 67 67 66 66 66 65 64 62 59 57 53 49 45 43 45 49 55 62 64 64 60 55 51 49 48 47 47 49 52 57 60 61 61 60 60 59 59 60 60 60 60 61 62 62 62 62 62 62 62 62 62 62 61 60 58 54 48 42 35 30 26 24 23 23 22 21 20 21 22 25 29 35 41 48 53 58 61 63 65 66 67
49 56 62 63 63 61 59 58 56 54 52 50 48 46 44 42 41 42 43 47 53 60 66 67 65 61 56 52 49 48 48 50 53 57 61 63 63 62 60 59 59 59 60 61 63 64 65 66 66 66 66 66 66 66 66 65 65 64 64 62 59 54 48 42 36 32 29 27 26 25 25 25 26 29 32 38 45 51 56 60 63 66 68 69 71 71
55 59 60 57 54 51 49 46 44 42 41 39 38 38 38 39 41 43 47 52 59 64 68 67 65 63 59 56 54 52 53 55 58 61 63 64 64 63 62 61 60 60 62 63 65 67 69 69 69 68 68 68 68 68 68 67 67 66 66 65 63 59 54 49 44 39 35 33 31 30 30 31 34 37 41 47 53 58 63 66 68 70 72 73 74 74
57 57 53 49 46 43 41 39 37 36 35 35 35 36 38 40 44 48 53 58 63 67 68 67 66 64 62 60 60 59 59 60 61 62 62 63 64 65 66 65 64 64 64 65 66 67 68 69 69 70 70 71 71 70 69 68 68 68 68 68 66 64 60 56 52 48 44 41 38 36 36 39 42 46 50 55 60 65 69 72 73 75 75 75 76 75
54 51 46 42 40 37 36 35 34 34 34 34 36 38 40 44 48 53 59 64 67 68 68 67 65 64 63 64 64 65 65 65 63 62 62 63 65 68 69 68 67 66 66 66 66 66 66 67 68 69 71 72 72 71 69 68 68 68 69 70 69 68 66 63 60 58 54 51 48 46 45 47 50 54 58 62 66 71 74 75 75 76 76 76 76 76
48 44 40 38 36 34 34 34 34 34 35 36 38 41 44 48 52 58 65 70 71 70 69 68 66 64 63 66 68 71 71 69 67 65 65 67 69 71 72 70 68 66 66 67 66 66 65 65 66 68 70 72 72 71 70 69 69 69 70 71 71 71 69 68 67 65 63 60 58 56 55 56 58 61 64 68 72 75 75 75 75 75 76 76 76 76
41 38 36 35 34 33 34 35 35 36 38 40 42 44 47 51 56 63 69 73 73 72 70 69 67 66 66 69 72 74 75 72 70 68 67 69 71 73 73 71 69 67 66 67 67 66 65 65 65 67 69 71 72 72 71 70 70 70 72 73 73 73 73 72 71 70 69 66 64 63 62 63 65 68 70 73 75 76 76 76 76 76 76 76 76 76
36 35 35 34 34 35 35 36 38 39 41 43 45 48 50 55 60 66 72 73 72 71 69 68 68 69 70 73 74 75 74 73 71 69 68 70 72 74 74 73 70 68 67 67 67 67 66 65 65 66 69 71 71 71 71 70 70 71 72 74 75 75 76 75 75 74 73 71 70 69 68 69 72 74 76 76 77 77 77 77 77 77 77 77 77 76
37 36 36 37 37 37 38 39 41 43 45 47 49 51 53 58 63 68 71 71 71 70 69 69 70 71 73 74 75 74 73 71 70 69 68 70 72 74 75 74 72 69 67 67 67 67 67 65 65 67 69 70 71 71 70 70 70 71 72 74 75 76 77 77 76 76 76 75 74 73 72 73 75 76 77 77 77 77 77 78 78 78 78 78 78 78
41 41 41 41 41 41 40 42 44 47 49 50 51 53 56 60 64 67 69 68 68 68 69 70 71 71 72 73 73 73 72 71 70 68 68 69 71 73 75 74 72 70 68 69 69 69 68 67 67 67 69 70 70 70 69 69 69 70 72 74 75 76 77 77 77 77 77 77 76 76 75 76 76 77 77 77 77 78 78 78 78 78 78 78 78 78
47 46 45 45 45 45 44 46 48 51 53 54 55 56 58 60 63 65 66 66 66 66 67 67 67 67 68 70 72 73 72 71 70 68 67 68 70 72 74 73 72 71 70 71 72 71 70 69 69 69 70 70 70 69 69 68 68 69 71 74 76 77 78 78 78 78 78 77 77 77 77 77 77 77 77 77 77 77 77 78 78 78 78 78 78 78
52 51 51 51 51 51 51 53 55 57 59 59 59 59 59 61 62 63 63 63 63 62 62 61 62 64 67 70 72 73 73 73 72 70 68 68 69 70 71 71 70 70 71 72 73 73 72 71 71 71 71 71 71 71 70 69 69 70 72 74 76 77 78 78 78 78 78 78 78 78 78 78 78 78 77 78 78 78 78 78 78 78 78 78 78 78
57 57 57 58 59 59 59 60 61 62 63 63 62 62 62 63 63 62 61 61 60 60 59 60 62 65 69 71 73 73 74 74 73 71 70 70 69 69 69 69 69 70 71 73 74 74 74 74 73 73 73 73 73 73 73 72 72 72 73 75 76 77 78 78 78 78 78 78 78 78 78 78 78 78 78 78 78 78 78 78 78 78 78 78 78 78
63 63 63 64 65 65 65 65 65 65 65 65 65 65 65 65 64 63 62 62 62 61 61 62 65 67 69 70 72 73 74 73 72 70 69 68 68 68 69 69 69 69 71 74 75 76 75 75 74 74 74 75 75 76 76 75 75 75 75 76 77 78 78 78 78 78 78 78 78 78 78 78 78 78 78 78 78 78 78 78 78 78 78 78 78 78
68 68 68 68 69 69 69 69 68 68 68 68 67 67 67 67 66 65 64 65 65 65 64 64 66 67 69 70 71 72 72 71 70 68 67 67 67 68 69 70 69 69 71 74 75 76 76 76 75 74 74 75 76 76 76 76 76 76 76 77 78 78 78 78 78 78 78 78 78 78 78 78 78 78 78 78 78 78 78 78 78 78 77 77 78 78
71 72 72 72 72 72 72 71 71 70 70 70 70 70 70 69 68 67 67 68 68 68 66 66 66 68 69 70 71 71 70 69 68 67 66 65 66 68 70 71 70 70 72 74 76 76 77 77 77 76 75 75 75 76 76 76 77 77 77 78 78 78 78 79 79 79 78 78 78 78 78 78 78 78 78 78 78 78 78 78 78 77 77 77 77 77
73 73 73 73 73 73 72 72 71 71 71 71 71 71 71 70 69 69 69 71 71 71 69 68 68 69 69 70 70 69 69 68 67 66 65 65 66 68 71 72 72 72 73 75 76 77 78 78 77 77 76 76 75 75 76 76 77 77 78 78 78 78 78 79 79 79 79 78 78 78 78 78 78 78 78 78 78 78 78 78 77 77 77 77 77 77
73 73 73 72 72 72 71 71 71 71 72 72 72 72 72 70 69 68 69 72 73 73 72 72 71 71 70 69 69 69 69 68 67 66 65 65 67 69 71 72 73 73 74 75 76 77 77 78 78 78 77 76 76 75 75 76 77 78 78 78 78 78 78 78 78 78 78 78 78 78 78 78 78 78 78 78 78 78 78 77 77 77 77 77 77 77
74 73 73 72 72 72 71 70 70 70 71 72 73 74 74 72 70 69 69 71 73 74 74 73 73 72 70 69 69 69 70 69 68 67 65 66 66 68 70 72 73 73 74 75 76 77 77 77 78 78 78 77 76 76 76 76 77 78 78 78 78 78 78 78 78 78 78 78 78 78 78 78 78 78 77 77 77 77 77 77 77 77 77 77 77 77
75 74 74 74 74 73 72 71 71 71 71 72 73 74 75 74 73 72 71 72 73 74 74 73 72 71 69 68 68 69 69 69 68 66 65 65 66 67 69 71 72 73 74 75 76 77 77 77 78 78 78 78 77 77 77 77 78 78 78 78 78 78 78 78 78 78 78 78 78 77 77 77 77 77 77 77 77 77 77 77 77 77 77 78 78 77
75 75 75 75 75 75 74 74 73 73 73 73 74 75 75 75 75 74 73 73 73 73 72 71 70 69 68 68 68 68 68 68 67 66 66 67 67 68 70 71 72 72 73 75 76 77 77 77 77 77 78 78 78 78 78 78 78 78 78 78 78 78 78 78 78 78 78 78 77 77 77 77 77 77 77 77 77 77 77 77 77 77 77 78 78 77
75 75 76 76 76 76 76 75 75 74 74 75 75 75 75 75 75 74 74 73 73 72 71 69 68 68 68 68 68 69 69 68 68 68 68 69 69 70 70 71 72 72 72 74 76 77 77 77 77 77 77 77 77 78 78 78 78 78 78 78 78 78 78 78 78 78 78 78 77 77 77 77 77 77 77 77 77 77 77 77 77 77 77 77 77 77
75 76 76 76 76 76 76 76 76 75 75 75 75 75 75 75 74 74 73 73 72 71 70 69 68 68 68 68 69 70 70 69 69 69 70 71 71 71 71 71 71 71 71 73 75 76 77 77 77 77 77 77 77 77 77 77 78 78 78 78 78 78 78 78 78 78 78 77 77 77 77 77 77 77 77 77 77 77 77 77 77 77 77 77 77 78
76 76 76 76 76 76 76 76 76 76 76 76 76 75 75 75 74 74 73 72 72 71 70 70 69 69 69 70 70 71 71 70 69 70 71 71 71 71 71 72 72 72 72 72 74 75 77 77 77 77 77 77 77 77 77 77 78 78 78 78 78 78 78 78 78 78 78 77 77 77 77 77 77 77 77 77 77 77 77 77 77 78 78 78 78 78
76 76 76 76 76 76 76 76 76 76 76 76 76 76 75 75 74 74 73 72 72 71 71 71 71 71 71 71 71 71 71 70 70 71 71 71 71 71 72 73 73 73 72 72 73 74 76 77 77 77 77 77 77 77 77 77 77 77 77 78 78 78 78 78 78 78 78 78 78 78 78 78 77 77 77 77 77 77 77 77 77 77 77 77 77 77
76 76 76 76 76 76 76 76 76 76 76 76 76 76 76 75 75 74 74 73 73 72 73 73 73 73 72 72 72 72 72 71 71 72 72 72 73 73 74 74 74 73 73 73 73 73 75 76 76 77 76 77 77 77 77 77 77 77 77 77 78 78 78 78 78 78 78 78 78 78 78 78 77 77 77 77 77 77 77 77 77 77 77 77 77 77
77 76 76 76 76 76 76 76 76 76 76 76 76 76 76 76 76 75 74 73 72 72 72 72 73 73 74 74 74 74 73 73 73 73 73 74 74 75 75 75 75 74 74 74 73 73 74 75 76 76 76 77 77 77 77 77 77 77 77 77 77 77 77 77 77 77 77 77 78 78 78 77 77 77 78 78 78 78 78 78 77 77 77 77 77 77
77 77 76 76 76 76 76 76 76 76 76 76 76 76 76 75 74 73 71 70 69 68 68 69 70 71 73 74 75 75 74 74 74 74 74 75 75 76 76 76 75 75 75 74 74 74 74 75 75 75 76 76 77 77 77 76 76 76 77 77 77 77 77 77 77 77 77 77 77 77 77 77 77 77 77 77 77 77 77 77 78 78 78 78 77 77
77 77 77 77 76 76 76 76 76 76 76 75 74 73 72 70 69 68 66 65 65 64 65 66 67 69 71 73 74 75 75 75 74 74 74 75 75 75 75 76 75 75 75 75 75 74 74 74 75 75 75 76 76 76 76 76 77 77 77 76 76 76 77 77 77 77 77 77 77 77 77 77 77 77 77 77 77 77 77 77 77 77 78 77 77 77
77 77 77 77 76 76 76 76 76 76 75 74 72 71 69 67 66 65 65 64 64 64 65 66 67 69 70 72 73 74 74 74 74 74 74 74 74 74 74 74 75 75 75 75 75 75 75 74 74 74 74 75 75 75 76 76 76 76 77 77 77 77 77 77 77 77 77 77 77 77 77 77 77 77 77 77 77 77 77 77 77 77 77 77 76 76
76 76 77 77 76 76 76 76 76 76 75 74 73 72 70 69 68 67 66 66 66 66 67 67 68 69 70 72 73 74 74 74 74 74 74 73 73 73 73 73 73 73 73 74 74 75 74 74 74 73 73 73 74 74 74 75 75 75 76 76 76 76 75 76 76 77 77 77 77 77 77 77 77 77 77 77 77 77 77 77 76 76 76 76 75 75
76 76 76 76 76 76 76 76 76 76 76 75 75 75 74 73 72 71 70 69 69 69 69 69 69 70 71 73 74 75 75 75 74 74 73 72 72 71 71 71 71 71 72 72 72 73 73 73 73 73 73 73 73 74 74 74 74 74 74 75 74 74 74 74 74 74 75 75 75 75 75 75 76 76 76 76 76 76 75 75 75 75 75 74 74 74
76 76 76 76 76 75 74 73 73 73 73 74 74 74 73 73 72 72 71 71 70 70 70 70 71 71 72 74 75 76 76 75 74 73 72 71 70 69 68 68 68 69 70 71 71 71 70 70 71 71 71 71 72 73 73 73 73 73 73 73 73 73 74 73 72 72 72 72 72 71 71 71 72 72 72 72 73 73 73 73 73 73 73 73 73 73
76 76 76 75 73 72 70 69 68 67 66 67 67 67 68 68 69 69 69 69 69 69 68 68 68 69 71 72 74 74 75 75 74 74 73 71 69 68 67 67 66 67 67 69 69 70 69 69 69 69 68 69 70 70 70 70 70 70 70 70 70 71 72 71 71 71 71 70 70 69 69 68 68 68 68 69 69 70 70 70 71 71 71 71 71 71
76 75 74 72 70 68 67 66 66 66 65 66 66 67 67 67 68 68 69 69 69 69 68 67 68 68 69 70 70 71 72 72 72 72 72 71 70 69 68 67 66 66 66 67 68 68 69 70 69 68 68 68 69 69 69 68 68 67 67 67 67 68 68 68 68 69 69 69 69 68 67 67 67 67 67 67 67 68 68 68 68 69 69 69 69 69
74 74 73 72 70 69 68 68 67 67 67 67 68 68 68 69 69 69 70 70 70 69 68 68 68 68 69 68 68 68 68 69 70 70 71 71 70 70 69 68 67 66 66 66 66 67 68 70 70 70 70 69 69 69 68 68 67 67 66 65 65 65 65 65 65 65 65 65 65 64 64 64 64 65 65 65 65 66 66 66 66 67 67 67 67 67
71 71 71 71 71 71 70 69 69 69 70 70 70 70 70 70 70 71 71 70 70 70 69 68 68 69 69 68 67 66 67 67 68 69 70 71 71 70 70 69 68 68 67 66 66 67 67 69 71 73 73 73 72 71 70 69 68 68 67 66 66 66 66 65 63 62 61 60 59 58 58 59 59 60 60 60 60 61 61 62 62 63 63 64 64 64
66 65 66 66 66 67 67 68 69 69 69 69 69 69 69 69 70 70 71 71 71 70 70 69 69 69 69 68 67 66 67 67 68 70 71 72 72 72 72 71 70 69 68 67 67 67 67 68 70 72 75 75 74 74 72 71 70 69 68 68 67 67 67 66 65 63 61 59 57 55 53 53 53 53 53 53 53 53 54 54 55 56 57 58 59 60
64 64 64 65 65 66 66 67 67 67 67 67 67 67 67 67 68 69 71 71 71 71 70 69 69 69 68 68 68 67 67 68 69 70 72 73 73 73 73 72 71 70 68 68 67 66 66 67 68 70 73 74 74 73 72 71 70 70 69 68 68 68 67 67 66 65 63 61 59 56 54 53 52 51 51 50 49 49 48 48 48 49 50 51 52 54
66 66 66 66 67 67 67 67 67 67 67 67 66 66 66 67 68 69 71 72 72 72 71 70 69 69 68 68 68 67 68 68 69 70 72 73 73 73 73 72 71 70 68 67 66 66 66 66 66 67 69 71 72 72 71 70 69 69 68 68 68 67 67 65 64 63 63 62 60 59 57 56 55 55 54 53 52 50 49 47 46 46 46 47 47 48
67 67 67 67 67 66 66 66 66 67 67 67 67 67 67 67 68 69 71 73 73 73 73 72 71 71 70 69 68 68 67 68 68 69 71 72 72 72 72 72 71 70 69 67 66 65 65 65 65 65 66 67 68 69 70 69 69 68 69 68 68 67 65 63 62 60 60 60 59 59 58 58 58 57 57 57 56 55 53 52 50 49 47 47 46 46
Wind_Speed
63 63 62 60 60 60 60 59 58 57 58 58 57 56 56 56 56 55 55 54 54 53 52 51 51 50 50 51 51 52 53 55 56 57 58 59 60 60 61 61 61 62 63 63 65 66 68 69 71 73 76 78 80 83 85 87 89 91 93 95 96 97 98 99 99 99 99 99 99 99 99 99 99 98 98 98 97 97 97 97 96 96 95 94 93 92
60 59 58 57 57 57 56 56 54 54 53 53 53 52 51 51 51 51 50 50 49 49 49 48 48 48 49 50 51 52 53 55 56 57 58 59 59 60 60 60 60 60 61 61 62 63 64 66 67 69 71 73 75 77 79 82 84 86 88 90 92 94 95 96 97 98 98 98 98 98 98 98 98 98 98 98 97 97 97 97 97 96 96 95 94 92
57 57 56 55 55 54 54 52 51 50 50 49 49 49 48 48 48 48 48 48 48 48 48 48 49 50 50 51 52 53 54 56 57 57 58 58 59 59 59 58 58 59 59 60 60 61 62 63 64 65 66 68 70 72 74 76 78 80 83 85 87 89 91 92 94 95 95 96 96 96 96 96 96 96 96 97 97 96 96 96 96 96 96 95 95 93
55 55 55 54 53 52 50 49 48 47 47 47 47 47 47 47 47 47 47 47 48 48 49 49 50 51 52 52 53 54 54 55 56 56 56 56 56 56 56 56 56 57 57 58 59 60 61 61 62 63 63 64 65 66 68 70 72 74 77 79 82 84 86 88 89 91 92 93 93 94 94 94 94 94 94 94 95 95 95 94 94 94 94 94 94 94
53 53 53 52 51 49 47 46 45 46 46 46 47 47 48 48 48 48 48 48 48 49 50 50 51 52 52 52 52 52 52 52 53 52 52 52 52 52 52 53 54 55 56 58 59 60 60 61 61 61 62 62 62 62 63 64 66 68 70 73 75 78 80 83 84 86 88 89 90 90 91 91 91 91 91 91 91 92 92 92 92 92 92 92 92 92
52 52 51 50 48 46 45 44 45 46 47 47 48 48 48 48 48 48 48 48 49 49 50 51 51 52 51 51 50 49 49 49 48 48 48 48 49 50 51 52 53 55 56 57 58 59 59 60 60 60 60 60 60 60 60 61 61 63 64 67 69 72 74 77 79 81 83 84 85 86 87 87 87 87 87 87 88 88 88 89 89 89 89 89 89 90
50 49 48 47 46 44 44 44 45 46 48 48 48 48 48 48 48 48 48 49 49 50 51 51 51 50 49 48 47 47 46 45 45 45 46 47 48 50 51 53 54 55 56 56 57 58 58 58 59 59 59 59 59 59 58 58 58 59 60 61 63 66 68 71 73 75 77 79 81 82 82 83 83 84 84 84 84 84 84 85 85 85 85 85 86 86
48 47 46 45 45 45 44 45 46 47 48 48 48 48 47 47 47 48 48 49 50 50 50 50 49 48 47 46 45 45 45 44 45 45 47 48 50 51 52 53 54 54 55 56 56 57 57 57 57 57 57 57 57 57 57 57 57 57 57 58 59 60 62 65 67 70 72 74 76 77 78 79 79 80 80 80 80 80 80 80 81 81 81 81 82 82
46 45 44 44 45 46 46 45 46 46 47 48 47 47 47 47 47 48 48 49 49 49 49 49 47 46 45 45 45 45 45 45 46 47 49 50 51 52 52 53 53 53 54 55 55 56 56 56 56 56 56 56 56 56 56 56 56 55 55 55 56 56 58 60 62 64 67 69 71 72 73 74 75 75 76 76 76 77 77 77 77 77 77 78 78 79
44 44 44 44 45 46 46 45 44 44 45 46 47 47 46 47 47 48 48 48 48 48 48 47 46 45 44 44 45 46 46 47 48 49 50 51 51 51 51 51 52 52 52 53 53 54 54 55 55 55 55 55 55 55 54 54 54 54 54 53 53 53 54 55 57 59 61 64 66 67 69 70 71 71 72 72 73 73 73 73 74 74 74 75 75 76
43 44 44 44 44 44 43 43 43 43 44 45 46 46 46 46 47 47 47 47 47 47 47 46 45 45 44 44 45 46 47 48 49 49 50 51 51 51 51 51 51 50 51 51 51 51 52 53 53 54 54 54 54 53 53 53 52 52 52 52 51 51 51 52 53 55 57 59 61 63 65 66 66 67 68 68 69 70 70 70 71 71 72 72 73 73
43 43 43 43 42 42 42 42 43 43 44 45 45 45 45 46 46 47 47 47 46 46 46 46 45 45 45 45 45 46 47 48 49 49 50 50 51 51 51 51 50 50 50 49 49 49 50 50 51 52 52 52 52 52 51 51 50 50 50 49 49 49 49 49 50 51 53 55 57 59 61 62 63 64 64 65 66 66 67 68 68 69 70 70 71 71
42 42 42 41 41 41 42 42 43 43 44 44 45 45 45 45 45 46 46 46 46 46 46 45 44 44 44 45 46 46 47 48 48 48 48 49 49 50 50 51 51 50 50 50 50 49 49 50 50 50 50 50 50 50 49 49 48 48 47 47 47 47 47 47 47 48 50 52 54 56 57 59 60 61 61 62 63 63 64 65 66 67 68 69 69 70
42 41 41 41 41 42 42 43 44 44 44 44 44 45 44 44 45 45 46 46 46 45 45 44 44 43 43 44 45 46 46 47 47 47 47 47 48 48 49 50 50 51 51 51 51 51 51 51 50 49 49 48 48 48 47 47 46 46 45 45 45 45 45 45 45 46 47 49 51 53 55 56 57 58 58 59 60 61 62 63 64 65 66 67 68 68
42 42 42 42 42 42 43 43 44 44 44 44 44 44 44 44 44 44 45 45 45 45 44 44 43 42 42 42 43 45 45 46 46 46 46 46 46 47 49 50 51 51 52 52 52 52 52 52 51 49 48 47 46 46 46 45 45 44 44 43 43 43 42 43 43 44 45 47 49 50 52 53 54 55 56 56 57 58 60 61 63 64 65 66 66 67
43 43 43 43 43 43 43 43 44 44 43 43 43 43 43 43 43 43 44 44 44 44 43 42 41 41 40 41 42 43 44 45 45 45 45 45 45 46 48 49 50 51 51 52 52 52 52 51 50 49 47 46 45 45 44 44 43 43 42 42 41 41 41 41 41 42 43 45 47 48 49 51 51 52 53 54 55 56 58 60 61 62 63 64 65 66
43 44 44 44 43 43 42 43 43 43 42 42 42 42 42 42 42 42 42 42 42 42 41 41 40 40 39 39 40 41 43 44 44 44 44 43 44 45 46 48 49 49 50 50 50 50 50 49 48 47 45 44 44 43 43 42 42 42 41 40 40 39 39 39 40 41 42 43 44 46 47 48 49 50 51 52 53 55 57 58 60 61 62 63 64 64
44 44 44 43 43 42 42 42 42 41 41 41 41 41 41 41 41 41 41 40 40 40 39 39 39 38 38 38 39 40 42 42 43 42 42 41 41 42 44 45 46 46 47 47 47 47 46 46 45 44 43 42 42 41 41 41 41 40 39 39 38 38 38 38 39 40 40 41 42 43 44 45 46 47 49 50 52 54 55 57 58 59 60 61 62 63
44 44 43 43 42 41 41 40 40 40 40 40 40 40 40 39 39 39 39 38 38 38 37 37 37 37 37 37 38 39 40 41 41 40 40 39 39 39 41 42 43 44 44 43 43 43 43 42 41 41 40 40 40 39 39 39 39 38 38 37 37 36 36 37 38 38 39 40 40 41 42 43 44 46 47 49 51 53 54 55 56 57 58 59 60 60
45 43 42 42 41 40 39 39 39 39 39 39 39 39 39 38 38 37 36 36 35 35 35 35 35 35 36 36 37 38 39 39 39 39 38 37 37 37 38 40 41 41 41 40 40 40 40 39 38 38 38 38 38 37 37 37 37 37 36 36 35 35 35 36 37 38 38 38 39 39 40 41 42 44 46 48 50 51 52 53 54 55 56 57 58 58
44 43 41 41 40 39 38 37 37 38 38 38 38 38 38 37 36 35 34 34 33 33 33 33 33 34 35 35 36 36 37 37 37 37 37 36 36 36 37 38 39 39 38 38 38 38 37 36 36 36 35 35 35 35 36 36 35 35 35 34 34 34 35 35 36 37 37 37 38 38 39 40 42 43 45 47 49 50 51 52 53 53 54 55 56 56
42 41 40 39 39 39 38 37 37 37 37 38 38 38 37 36 35 34 33 32 32 32 32 32 33 34 34 35 35 35 35 35 36 36 36 35 35 35 36 37 37 37 36 35 35 35 35 34 34 33 33 33 33 34 34 34 34 34 33 33 33 33 34 34 35 36 36 37 37 38 38 40 41 43 45 47 48 49 49 50 51 52 52 53 53 54
40 39 38 38 38 37 37 37 36 36 37 37 37 36 36 35 34 33 32 31 31 31 32 32 33 33 33 33 33 33 33 34 35 35 35 35 35 35 35 36 36 35 34 33 33 33 33 32 32 31 31 31 32 32 32 32 32 32 32 32 32 32 33 33 34 35 35 36 37 38 39 40 42 43 45 46 47 47 48 48 49 49 50 50 51 51
39 38 37 36 36 36 36 36 36 36 36 36 35 35 34 34 33 32 31 31 31 31 32 32 33 33 32 32 32 32 33 34 34 35 35 35 34 34 35 35 34 33 31 30 30 30 30 30 30 30 30 30 30 31 31 31 31 31 31 30 30 31 31 32 33 34 35 36 37 38 39 40 42 43 44 45 45 46 46 46 46 46 47 47 47 48
37 36 35 35 35 35 35 35 35 35 35 34 34 33 33 32 32 31 31 30 31 31 32 32 32 32 32 32 32 32 33 33 34 34 34 34 33 33 33 33 33 31 29 28 28 28 28 28 28 29 29 29 30 30 29 29 29 29 29 29 29 30 31 31 32 33 34 35 36 37 39 40 41 42 43 44 44 45 45 45 45 44 44 44 45 46
35 34 34 34 34 34 34 34 33 33 33 32 32 32 31 31 31 31 30 30 31 31 32 32 31 31 31 31 32 32 32 33 33 33 34 33 32 32 32 32 32 30 28 27 26 26 26 26 27 28 28 29 29 29 28 28 28 28 28 28 29 29 30 31 32 33 33 34 35 36 37 39 40 41 42 43 43 44 44 44 44 43 43 43 43 44
33 33 32 32 32 32 32 32 32 31 31 31 31 31 31 31 31 30 30 30 30 31 31 31 31 31 31 31 31 32 32 32 33 33 33 32 31 31 31 31 31 29 27 26 25 24 24 25 26 27 28 28 28 28 27 27 27 27 28 28 28 29 29 30 31 31 32 33 34 35 36 37 38 39 40 41 42 43 44 44 44 44 43 43 43 44
32 31 31 31 30 30 30 30 30 31 30 30 30 30 30 30 30 29 28 28 28 29 29 30 30 30 31 31 31 31 31 32 32 32 32 31 31 30 30 30 29 28 26 25 24 23 23 24 25 26 27 27 27 26 26 26 26 26 26 26 27 27 28 28 29 30 30 31 32 33 34 35 36 37 39 40 41 42 43 44 44 45 44 44 44 44
30 30 29 29 29 29 30 30 31 31 30 30 29 29 29 30 29 29 28 27 27 27 28 28 29 29 30 30 30 30 30 30 31 31 31 30 30 29 29 29 28 27 25 24 23 22 22 23 24 25 25 25 25 25 25 24 24 24 24 24 24 25 25 26 27 28 28 29 30 31 32 33 34 35 37 38 40 41 42 44 44 45 45 45 45 45
29 28 28 28 28 29 30 31 31 31 30 29 29 28 28 28 28 28 27 27 27 26 26 27 27 28 28 29 29 28 28 29 29 29 29 28 28 28 28 27 26 25 24 22 21 20 20 21 22 23 23 23 24 23 23 23 22 22 22 22 22 22 23 23 24 25 26 27 28 29 30 31 32 33 35 36 38 40 41 43 44 45 45 46 45 45
27 26 26 27 27 28 30 30 31 31 30 29 28 27 27 27 27 27 27 26 26 26 26 25 26 26 27 27 27 26 26 26 27 27 27 26 26 26 26 26 25 24 22 21 20 19 18 19 20 21 21 21 21 21 21 21 20 20 19 19 19 20 20 21 22 23 23 24 25 26 27 28 30 31 32 34 36 38 40 42 43 45 45 45 45 45
25 25 26 26 27 28 28 29 29 29 29 28 27 26 26 26 26 26 26 26 26 26 25 25 25 25 26 26 25 25 24 25 25 25 25 25 25 25 25 25 24 23 22 21 20 19 18 17 18 19 19 19 19 19 19 19 19 18 18 17 17 18 18 19 20 20 21 22 23 24 25 26 27 28 30 32 34 36 38 40 42 44 44 45 45 45
24 25 26 26 27 27 27 27 28 27 27 26 26 25 25 25 25 25 26 26 26 26 26 25 25 25 25 25 25 24 24 24 24 24 24 24 24 24 24 24 24 23 22 21 20 18 17 17 17 17 18 18 18 18 18 18 18 17 17 17 17 17 17 18 18 19 19 20 21 22 23 23 24 25 27 28 30 33 35 37 39 41 42 43 43 44
25 25 26 27 27 26 26 26 26 26 26 26 25 25 25 25 25 25 26 26 26 26 26 26 26 26 26 25 24 24 24 24 24 24 24 24 24 24 24 24 24 23 22 21 20 19 18 17 16 16 16 17 17 17 17 17 17 17 17 17 17 17 17 17 18 18 19 19 20 21 21 22 23 23 24 25 27 29 31 33 35 37 38 39 40 41
25 26 26 27 26 26 25 25 26 26 26 25 25 25 25 25 26 26 26 27 27 27 27 27 27 27 26 25 25 24 24 24 25 25 25 24 24 24 24 24 24 24 23 22 21 19 18 17 16 16 15 16 16 17 17 17 16 16 17 17 17 17 17 18 18 18 19 19 20 20 21 22 22 23 23 24 25 26 28 29 31 33 34 35 36 37
26 26 26 26 26 25 25 25 25 26 26 25 25 25 25 26 26 27 27 27 28 28 28 28 28 27 27 26 26 25 25 25 26 25 25 25 25 25 24 24 24 24 23 22 21 20 19 18 17 17 16 15 16 16 16 16 16 16 16 17 17 17 18 18 19 19 19 20 20 20 21 22 22 23 24 25 25 26 27 29 30 31 32 34 35 35
26 26 26 26 25 25 25 25 25 26 26 26 26 26 26 26 27 27 28 28 29 29 29 28 28 28 28 27 27 27 26 27 27 26 26 25 25 25 25 25 25 25 24 23 22 21 20 19 19 18 18 17 17 16 16 16 16 16 16 17 17 18 18 19 19 20 20 20 21 21 22 22 23 24 25 26 27 27 28 30 31 32 33 34 35 35
25 25 25 25 25 25 25 25 25 26 26 26 26 26 26 27 27 28 29 29 29 30 29 29 29 28 28 28 28 28 28 28 28 27 27 26 26 26 25 25 25 25 25 24 23 22 21 20 20 20 20 20 19 19 18 18 17 17 17 18 18 19 19 20 20 21 21 21 22 22 23 23 24 25 26 27 28 28 29 30 31 32 33 34 35 35
25 25 25 25 25 25 25 25 25 25 26 26 26 27 27 28 28 29 30 30 30 30 30 30 29 29 29 28 28 28 29 29 29 28 28 28 27 27 26 26 26 26 25 24 23 22 22 21 20 20 20 21 21 22 22 21 21 21 21 21 21 21 21 22 22 22 23 23 23 23 24 24 25 26 27 27 28 29 30 31 32 33 33 34 35 35
26 25 25 25 25 25 25 25 25 25 25 26 27 27 28 29 30 30 31 31 31 31 31 30 30 29 29 29 29 29 29 29 29 29 29 29 28 28 27 27 27 26 26 25 24 23 22 21 21 21 21 21 22 23 24 24 25 25 25 25 24 24 24 25 25 25 25 25 25 26 26 26 27 27 28 29 30 30 31 32 32 33 34 34 35 35
26 26 25 25 25 25 25 25 25 25 26 26 27 28 29 30 31 32 32 32 32 32 31 31 30 30 29 29 29 29 30 30 30 30 30 30 30 29 29 28 28 27 27 26 25 24 23 22 21 21 21 21 21 22 23 25 26 27 27 28 28 28 28 28 28 28 28 29 29 29 29 29 29 30 30 31 32 32 33 34 34 35 36 36 37 37
26 26 25 25 25 25 25 26 26 26 27 27 28 29 30 31 32 32 33 33 33 33 32 32 31 30 29 29 29 29 30 30 31 31 31 31 31 30 30 29 29 28 28 27 26 25 24 23 22 21 21 21 21 21 22 23 24 26 27 28 29 30 30 31 31 31 32 32 32 32 32 33 33 33 33 34 34 35 36 36 37 37 38 38 39 39
26 26 26 26 26 26 27 27 27 28 28 28 29 30 31 32 32 33 33 34 34 34 33 33 31 30 29 28 28 29 29 30 31 31 31 31 31 31 31 30 30 29 29 28 27 26 25 24 23 22 22 21 21 21 21 22 23 24 25 26 27 28 29 30 31 32 32 33 34 34 35 35 36 36 36 37 37 38 39 39 40 40 41 41 42 42
27 27 27 27 27 28 28 29 29 29 29 30 30 31 31 32 33 34 34 34 34 34 34 34 33 31 30 29 28 29 29 30 30 31 31 32 32 32 31 31 31 30 30 29 28 27 26 25 24 23 22 22 21 21 21 22 22 23 23 24 24 25 26 27 28 29 30 31 32 33 34 35 36 37 38 39 39 40 41 42 42 43 44 44 45 45
28 28 28 29 29 29 30 30 30 30 31 31 31 31 32 33 34 34 35 35 35 35 35 35 34 33 32 31 30 30 29 29 30 31 31 32 32 32 32 32 31 31 30 30 29 28 27 26 24 24 23 22 21 21 21 21 22 22 22 23 23 23 24 25 25 26 27 28 29 31 32 33 34 35 36 37 39 40 41 42 43 44 45 46 47 47
29 29 29 30 30 30 31 31 31 32 32 32 32 32 33 33 34 35 35 35 35 35 35 35 35 34 34 33 32 31 31 30 30 30 31 31 32 32 32 32 32 32 31 31 30 29 28 27 25 24 23 22 22 22 22 22 22 22 22 22 22 23 23 23 24 25 25 26 27 28 28 30 31 32 33 34 35 37 38 39 41 42 43 44 45 46
29 29 30 30 31 31 32 32 32 32 32 33 33 33 33 34 34 34 34 35 35 35 35 35 35 35 35 34 34 33 33 32 31 31 31 31 31 32 32 32 32 32 32 31 31 30 29 28 27 25 24 23 22 22 22 22 22 22 22 22 22 22 23 23 24 24 25 25 26 26 26 27 28 28 29 30 32 33 34 35 36 37 38 39 40 41
30 30 31 31 32 32 32 33 33 33 33 33 33 33 33 33 33 34 34 34 34 34 35 35 35 34 34 34 34 34 33 33 32 31 31 31 31 31 32 32 32 32 32 32 31 31 30 29 28 27 26 25 24 23 23 23 22 22 22 22 22 22 22 23 23 24 25 25 25 25 26 26 26 27 28 29 29 30 31 32 32 33 34 35 36 36
31 31 32 32 32 32 33 33 33 33 33 33 32 32 32 32 32 32 32 33 33 33 33 34 34 34 33 33 33 33 33 32 32 31 30 30 30 30 31 31 32 32 32 32 32 31 31 30 29 28 27 27 26 25 25 24 23 23 23 22 22 22 22 23 23 24 24 25 25 25 25 26 26 26 27 28 28 29 29 30 31 31 32 33 33 34
32 32 32 32 32 32 32 32 32 32 32 32 32 32 31 31 31 31 31 31 31 32 32 32 33 33 32 32 32 32 32 32 31 31 30 30 30 30 30 31 31 32 32 32 32 31 31 30 30 29 29 29 29 28 27 26 25 24 23 23 23 23 23 23 23 24 24 25 25 26 26 26 26 26 27 27 28 28 29 29 30 31 31 32 33 33
33 33 32 32 32 32 32 31 31 31 31 31 31 31 30 30 30 29 29 29 29 30 30 31 31 31 31 31 31 31 31 31 31 31 30 30 30 30 30 30 31 31 32 32 32 31 31 31 30 30 31 31 30 30 29 27 26 25 24 24 24 24 23 24 24 24 24 25 25 26 26 27 27 27 27 28 28 28 29 29 30 31 31 32 32 33
Wind_Direction
288 287 287 286 285 284 283 282 282 281 280 279 279 278 277 277 277 278 278 278 279 279 279 278 278 277 276 276 275 274 274 274 273 273 273 273 273 273 272 272 271 270 270 269 268 267 266 265 264 263 262 260 259 259 258 257 257 256 256 255 255 255 254 254 253 253 252 252 251 250 250 249 249 249 249 249 249 249 249 250 250 250 250 250 250 250
289 288 287 287 286 285 284 283 283 282 281 280 279 279 278 277 277 277 277 278 278 278 278 278 278 278 277 277 276 276 275 275 274 274 274 274 274 274 273 273 273 272 271 271 270 269 268 267 266 265 264 263 262 260 259 258 257 256 256 255 255 255 254 254 253 253 252 252 251 250 250 249 248 248 248 248 248 248 249 249 249 249 249 249 249 249
289 289 288 287 287 286 285 284 283 282 281 280 280 279 278 278 278 278 278 278 278 278 278 278 278 278 278 277 276 276 275 275 274 274 274 274 274 274 274 273 273 273 272 272 271 271 270 269 268 268 267 265 264 263 261 260 259 257 257 256 255 254 254 253 253 253 252 252 251 250 250 249 248 248 248 248 248 248 248 248 248 248 248 248 248 248
290 289 288 288 287 286 285 284 283 282 281 280 280 280 279 279 279 279 278 279 279 279 279 280 280 279 279 278 277 276 275 275 274 274 273 273 273 273 273 273 273 273 273 273 272 272 271 271 270 269 269 268 267 265 264 262 261 259 258 256 255 255 254 253 253 252 252 251 251 250 250 249 248 248 247 247 247 247 247 247 247 247 248 248 248 248
290 289 289 288 287 285 284 284 283 282 281 281 281 280 280 280 280 280 280 280 280 281 281 281 281 281 280 279 278 277 276 275 274 274 273 273 273 273 273 274 274 274 274 274 274 273 273 272 271 271 270 269 268 268 266 265 263 261 259 258 256 255 254 253 253 252 252 251 251 250 249 249 248 247 247 246 246 246 246 246 246 247 247 247 247 248
289 289 288 287 286 285 284 283 283 283 282 282 281 281 281 281 281 281 281 281 282 282 282 283 282 282 281 280 279 278 277 275 275 274 274 273 274 274 274 274 275 275 275 275 274 274 274 273 272 271 271 270 269 269 268 267 266 264 262 260 258 256 255 254 253 252 251 251 250 250 249 248 248 247 246 246 246 246 246 245 246 246 246 246 247 247
289 288 287 286 285 284 284 284 284 284 283 283 282 281 281 281 281 282 282 283 283 283 283 283 283 283 282 281 279 278 277 276 275 274 274 275 275 276 276 276 276 275 275 275 275 274 274 274 273 272 271 271 270 270 269 269 268 267 265 262 260 258 255 254 253 252 251 251 250 250 249 248 247 246 246 245 245 245 245 245 245 245 245 245 246 246
288 287 286 285 285 285 285 285 285 284 284 283 282 282 281 282 282 282 283 283 284 284 284 284 283 282 281 280 279 277 276 276 275 276 276 277 277 278 278 278 277 276 276 275 275 274 274 274 273 273 272 271 271 270 270 270 269 268 267 265 262 260 257 255 253 252 251 250 250 249 248 248 247 246 245 244 244 244 244 244 244 244 244 244 245 245
287 286 285 285 285 286 285 285 284 284 283 283 282 282 282 282 282 283 283 284 284 284 284 284 283 282 280 279 278 277 276 276 277 278 278 279 280 280 280 279 279 278 277 276 275 274 274 274 273 273 272 272 271 271 271 270 270 269 268 267 264 262 259 256 254 252 251 250 249 249 248 247 246 245 244 244 243 242 242 242 242 243 243 243 243 243
286 285 285 285 286 286 286 285 284 283 283 283 283 283 283 283 284 283 284 284 284 285 284 284 282 281 279 278 277 277 277 278 279 280 280 281 281 280 280 280 279 279 278 277 276 276 275 274 273 273 272 272 272 271 271 271 270 270 269 268 266 263 261 258 255 253 251 250 249 248 247 246 245 244 243 242 242 241 241 241 241 241 241 241 242 242
285 285 286 286 286 286 286 285 285 284 283 283 283 284 284 285 285 285 285 285 285 285 284 283 281 280 278 277 277 277 278 279 280 280 281 281 281 280 280 280 280 280 279 279 278 277 276 275 274 273 273 272 272 272 271 271 271 270 269 268 266 264 262 259 256 254 252 250 249 248 247 245 244 243 242 241 240 240 240 240 240 240 240 240 240 241
286 286 286 286 286 286 286 286 285 285 284 284 284 285 285 285 285 285 285 286 285 285 284 282 281 279 278 277 277 277 278 279 280 280 280 280 280 280 280 280 280 280 280 280 280 279 278 277 276 274 273 273 272 272 271 271 270 270 269 268 266 264 262 259 256 254 252 250 248 247 246 244 243 242 241 239 239 238 238 238 238 238 239 239 239 239
286 287 286 286 286 286 286 286 286 285 285 285 285 286 286 286 286 286 286 286 285 285 284 282 281 279 279 278 278 278 279 279 280 280 280 280 280 280 280 280 280 281 281 280 280 280 279 278 277 276 275 274 273 272 271 271 270 269 269 267 266 264 261 259 256 253 251 249 248 246 245 243 242 241 239 238 237 237 237 237 237 237 237 238 238 238
287 288 287 287 287 287 287 287 286 286 286 286 286 286 286 286 286 286 286 286 286 285 284 283 282 281 280 280 280 280 280 281 281 280 280 280 280 280 280 280 280 280 280 280 279 279 278 278 277 276 275 274 273 272 271 270 269 269 268 266 264 262 260 257 255 252 250 249 247 245 244 242 241 240 238 237 236 236 236 236 236 236 237 237 237 237
289 289 288 288 288 287 287 287 286 286 286 286 286 286 286 286 286 286 286 286 286 286 285 284 283 282 281 281 281 281 282 282 282 281 281 281 281 281 281 281 281 280 280 280 279 278 278 277 277 276 276 275 273 272 271 270 269 268 267 265 263 260 258 255 253 251 249 248 246 245 243 242 240 239 237 236 235 235 235 235 236 236 236 236 236 237
289 289 289 288 288 287 287 286 286 286 285 285 285 285 285 285 285 285 286 286 286 286 285 284 283 282 281 281 281 282 282 282 282 282 282 282 282 282 282 282 282 281 281 280 280 279 278 277 276 276 275 274 273 271 270 269 269 268 266 264 261 259 256 253 252 250 249 247 246 244 243 241 239 238 236 235 235 235 235 235 235 235 235 236 236 236
289 289 289 288 287 287 286 285 285 284 284 284 284 284 284 285 285 286 286 286 286 285 284 283 282 281 280 280 280 280 281 281 282 282 283 283 283 284 284 284 283 283 282 282 281 279 278 277 276 275 274 273 272 270 270 269 268 267 266 263 261 257 254 252 250 249 248 247 246 244 242 241 239 237 236 235 235 235 235 235 236 236 235 235 236 236
290 290 289 288 287 286 285 284 284 284 284 283 283 284 284 285 286 286 286 285 284 283 282 281 280 280 280 279 279 280 280 281 282 282 283 283 284 284 285 285 285 284 284 283 281 280 278 276 275 274 273 272 271 270 269 269 268 267 265 263 260 257 254 251 250 248 247 246 245 244 242 240 238 237 236 235 235 235 235 236 236 236 236 236 236 236
291 290 290 289 287 286 285 284 284 284 284 284 284 284 285 286 286 286 285 284 283 281 280 279 279 280 280 280 280 281 281 282 283 283 283 283 284 285 285 286 286 285 285 284 282 280 278 276 274 273 272 271 270 270 269 268 268 267 265 262 259 256 253 251 249 248 247 246 244 243 241 239 238 236 236 235 235 236 236 236 236 236 236 236 236 236
292 291 290 289 288 286 285 285 285 285 285 285 286 286 286 287 286 286 285 283 282 280 280 280 280 280 281 282 282 283 284 284 284 284 283 284 284 285 286 287 287 286 286 285 283 280 278 275 274 272 271 271 270 270 269 269 268 267 265 262 258 255 252 250 248 247 246 245 243 242 240 239 237 236 236 236 236 236 237 237 237 237 237 237 237 237
293 292 291 290 289 288 287 287 287 287 287 287 287 287 288 288 287 286 285 283 282 281 281 281 282 284 285 286 287 287 287 286 286 285 285 285 285 287 288 288 288 288 287 285 283 280 277 275 274 272 272 271 271 271 270 269 268 267 264 262 258 255 252 249 247 246 245 244 242 241 240 238 237 237 236 237 237 237 237 237 237 237 237 237 237 237
292 292 291 290 290 290 289 289 289 289 289 289 289 289 289 289 289 287 286 285 284 284 285 286 287 289 290 291 291 291 289 289 288 287 287 287 288 288 289 289 289 289 288 286 283 280 277 275 274 273 272 272 272 272 271 270 268 267 264 261 258 254 251 249 247 246 244 243 242 241 239 238 238 237 237 237 237 237 237 237 237 237 237 237 237 236
292 291 291 290 290 290 290 290 290 290 289 289 290 290 290 291 291 290 289 288 288 289 290 291 292 293 294 294 294 293 292 291 290 289 289 290 290 290 290 290 290 290 289 287 284 280 278 275 274 273 273 273 273 272 271 270 268 266 264 261 257 254 251 248 247 245 244 243 242 241 240 239 239 238 238 238 238 237 237 237 237 236 236 236 235 234
291 291 291 291 290 291 291 291 290 290 290 290 290 291 292 293 293 292 292 292 293 293 293 294 295 296 297 297 296 294 293 292 291 291 291 291 291 291 291 291 291 291 290 288 285 281 278 276 274 274 274 274 274 273 272 270 268 266 264 260 257 253 250 248 247 245 245 243 242 241 240 240 239 239 239 238 238 237 237 236 236 235 234 234 234 233
291 291 291 291 290 290 290 290 290 290 290 291 292 293 294 294 294 294 294 295 295 295 295 296 298 299 299 298 296 294 293 292 291 291 291 291 292 293 294 294 293 292 291 289 286 282 279 277 275 274 274 275 275 274 273 271 269 266 263 259 256 253 250 249 247 246 246 245 244 242 241 240 240 239 239 238 237 236 235 235 234 233 232 232 232 231
290 290 290 290 290 290 290 290 290 291 291 292 293 294 295 295 294 294 295 296 297 297 297 298 299 300 299 297 295 294 292 292 292 292 292 293 294 296 297 296 295 294 293 290 287 283 280 278 276 276 276 276 276 275 274 272 269 266 263 259 256 253 251 250 248 248 247 246 245 243 242 241 240 239 238 237 236 235 234 233 231 230 230 230 230 230
289 289 289 289 290 290 290 291 291 292 293 293 294 295 295 295 294 294 295 297 297 297 297 298 299 298 297 296 295 294 293 293 293 293 294 295 297 299 299 298 297 296 294 291 288 284 282 280 278 277 277 277 276 275 274 272 269 266 263 260 257 255 252 251 249 248 247 246 245 243 242 240 239 238 237 236 235 234 233 232 230 229 228 228 229 229
289 290 290 291 292 292 293 293 293 293 294 294 295 295 295 295 295 295 295 295 295 295 296 297 297 297 296 296 295 295 295 295 295 295 296 297 300 301 301 300 299 298 295 291 288 285 283 282 280 279 278 278 276 275 273 271 269 267 264 262 259 256 254 252 250 248 246 245 244 242 241 239 238 237 236 235 234 233 232 230 229 228 226 226 226 227
291 291 292 294 294 295 294 294 294 294 294 295 295 295 295 296 296 296 296 295 295 295 295 296 296 296 296 296 297 297 297 297 296 297 298 299 301 302 302 301 301 299 296 292 289 287 286 283 281 280 279 278 276 274 272 270 269 268 266 264 261 258 255 252 250 248 245 243 242 240 239 237 236 235 234 234 233 232 231 230 229 228 227 226 225 225
291 292 293 294 294 294 293 293 293 294 294 295 296 296 295 295 296 296 296 295 295 295 295 295 295 296 297 297 298 298 298 297 297 297 298 300 302 302 303 302 302 300 297 294 291 289 288 286 283 281 280 278 276 274 272 270 269 268 267 265 262 259 256 252 249 246 244 242 240 238 237 236 235 234 233 232 232 231 230 230 229 228 227 226 225 225
289 290 291 291 290 290 290 290 291 293 294 295 296 296 295 295 295 295 295 296 296 296 296 296 297 297 297 297 298 298 298 297 297 298 299 301 302 303 303 303 303 301 299 296 293 291 290 289 286 284 282 280 278 276 273 271 269 268 266 264 261 257 254 251 247 245 243 240 239 237 236 235 234 234 233 232 231 231 230 230 229 229 228 227 226 225
288 288 288 287 286 286 286 287 289 291 293 294 295 295 295 294 294 294 295 295 296 297 297 298 298 297 297 297 297 298 297 297 297 297 299 301 302 302 303 304 304 303 300 298 294 292 290 290 288 286 284 282 280 277 275 272 270 268 265 262 258 254 251 247 245 243 242 240 239 238 237 236 235 234 234 233 232 231 230 230 230 229 229 228 227 226
288 287 286 284 284 283 284 285 287 289 291 293 294 294 294 293 293 293 294 294 296 297 297 298 297 297 296 296 296 296 297 297 297 298 299 301 302 303 303 304 305 304 302 299 295 292 289 288 287 287 286 284 281 278 275 273 270 267 264 260 256 251 248 245 243 242 242 241 241 240 239 238 237 236 235 234 233 232 231 230 230 229 229 228 228 227
287 286 285 283 283 283 283 285 287 288 290 291 291 292 292 291 291 292 292 293 294 295 296 296 296 296 296 295 296 296 296 297 297 298 299 301 302 303 304 306 306 305 304 301 297 292 288 285 284 284 285 284 281 279 276 273 270 266 263 259 255 251 247 245 243 243 243 242 242 242 241 240 238 237 236 234 233 232 231 230 229 229 229 229 228 229
285 285 284 283 282 282 283 284 285 286 287 288 288 288 288 289 289 289 290 290 291 292 293 294 294 295 296 296 296 296 296 296 297 298 299 301 302 303 304 305 306 306 305 303 299 294 289 284 281 280 281 283 281 279 276 273 270 266 263 259 255 252 249 247 246 245 244 244 243 242 241 240 238 237 235 234 233 232 231 230 230 229 229 229 230 230
284 284 283 282 282 282 281 281 282 283 284 284 285 286 286 287 287 288 288 288 289 290 291 292 293 294 295 295 296 296 295 296 296 297 298 299 300 302 303 303 304 304 305 304 301 297 292 286 280 276 275 276 277 277 275 273 270 266 263 260 257 254 252 250 248 247 246 245 244 242 241 239 237 236 234 233 232 231 231 231 231 231 231 231 232 232
283 283 283 282 282 281 280 279 280 281 282 282 283 284 285 286 286 286 287 287 287 288 289 290 291 292 293 294 294 294 294 295 295 295 296 297 297 298 299 300 301 302 303 303 302 300 295 289 282 276 272 269 269 270 270 268 267 264 262 259 257 254 253 251 250 249 248 247 245 243 241 239 237 235 234 233 232 231 231 231 231 232 232 233 233 234
282 282 282 282 282 281 279 279 279 280 281 282 283 284 284 285 285 285 285 286 286 287 288 289 289 290 291 292 292 292 293 293 293 293 293 294 294 294 295 296 296 298 299 300 301 300 297 293 286 279 273 268 264 263 262 262 261 259 257 255 254 252 251 251 250 250 249 248 246 245 243 240 238 236 235 233 232 232 231 231 232 232 232 233 234 234
282 282 282 282 282 281 280 279 279 279 281 282 283 284 284 285 284 284 285 285 286 286 287 288 289 290 290 290 290 290 290 290 290 290 290 291 291 291 291 291 292 293 294 296 297 297 296 294 290 284 278 271 266 262 260 259 257 256 255 254 252 251 250 250 249 249 249 248 247 245 244 242 240 238 236 235 233 233 232 232 232 232 233 233 234 234
282 282 282 282 282 281 281 280 280 280 281 283 284 285 285 286 286 286 286 286 287 288 289 289 290 290 290 290 290 289 289 288 288 288 288 288 288 288 288 288 288 289 289 290 291 292 292 292 290 287 282 277 271 267 263 260 258 256 255 254 253 252 251 250 250 249 249 248 247 246 245 244 242 240 238 237 236 235 234 234 233 234 234 235 235 236
283 282 282 282 282 282 282 282 281 282 282 283 284 284 285 286 286 287 287 288 289 290 290 291 291 291 291 290 289 288 288 287 287 287 286 286 286 286 286 285 285 285 286 286 287 287 288 288 287 286 284 281 277 272 268 264 261 259 257 256 256 255 253 252 252 251 250 249 249 248 247 245 244 243 242 240 239 238 237 237 236 236 237 237 238 239
283 282 282 281 281 281 281 281 281 281 281 281 281 282 282 283 284 285 286 287 289 290 291 291 291 290 290 289 289 288 287 286 286 286 285 285 285 284 284 284 284 283 283 283 284 284 284 284 284 283 283 281 279 276 273 269 265 262 260 258 257 256 255 255 254 253 252 252 251 250 248 248 247 245 244 243 242 241 240 240 240 240 240 240 241 242
283 282 281 280 279 278 278 278 278 278 278 278 279 279 280 281 283 284 285 287 288 290 290 291 291 290 289 289 287 286 286 285 285 284 284 284 283 283 283 283 282 282 282 282 281 281 281 281 281 281 280 279 278 277 275 272 269 266 263 261 259 258 257 256 255 254 253 252 252 251 250 249 248 247 246 245 244 244 243 243 243 242 243 243 244 245
282 281 279 278 277 277 277 277 277 277 278 278 279 280 281 283 284 285 287 288 289 290 291 291 291 291 290 288 287 285 284 284 283 283 283 283 283 283 282 282 281 281 281 280 280 279 279 279 279 279 279 278 277 275 273 271 269 267 265 262 260 259 257 256 255 253 253 252 252 251 250 249 248 248 247 246 246 246 245 245 245 245 245 245 246 247
282 281 280 279 279 279 279 280 280 281 281 282 283 283 284 285 286 287 287 289 289 290 290 291 291 290 290 288 286 285 283 282 282 282 282 282 282 282 282 281 281 280 280 279 279 278 278 278 278 278 278 278 277 275 272 270 268 266 264 262 261 259 257 256 255 253 253 251 251 250 250 249 249 248 247 247 247 247 246 246 246 247 247 247 247 248
283 283 283 283 283 283 283 284 284 284 285 285 285 286 286 286 287 287 288 288 289 289 289 289 289 289 289 288 286 285 284 282 282 281 281 281 282 282 282 281 281 280 280 279 278 278 277 277 277 277 277 277 276 274 272 269 266 264 263 261 260 258 257 256 255 254 253 251 251 250 250 250 249 249 248 248 247 247 247 247 247 247 247 248 248 248
286 286 286 286 286 286 286 287 287 287 288 288 288 288 287 287 287 288 288 288 288 288 288 288 288 288 288 288 287 286 285 284 283 282 282 281 281 281 281 281 281 281 280 279 278 277 277 276 275 275 275 275 275 274 272 269 267 264 262 260 258 257 256 256 255 255 254 253 252 251 250 250 250 250 249 249 248 248 247 247 247 247 247 247 248 248
288 288 288 288 288 289 289 289 289 290 290 290 290 289 288 288 288 288 288 287 287 287 286 287 287 287 287 287 287 287 286 286 285 284 283 282 282 281 281 281 281 280 280 279 278 277 276 275 274 273 273 272 272 271 270 268 267 264 262 260 258 256 255 255 255 255 255 255 254 253 252 252 251 251 251 250 250 250 249 249 249 248 248 248 248 248
290 291 291 291 291 292 292 291 291 292 292 291 291 290 289 289 288 288 287 287 286 286 286 286 286 286 286 286 286 286 286 285 285 284 283 282 281 281 280 280 280 279 279 278 277 276 275 273 272 271 270 270 269 269 268 267 266 264 262 260 258 256 255 255 255 255 256 256 256 256 255 254 253 252 252 252 251 251 251 250 250 250 249 248 248 247
293 294 294 294 294 294 294 294 293 293 292 292 291 290 290 289 288 288 287 287 286 286 286 286 285 285 285 285 285 285 284 284 284 283 282 281 280 279 279 279 278 278 278 277 276 275 274 272 271 269 268 267 267 266 266 265 264 263 261 259 258 257 256 255 256 256 257 257 258 258 258 257 255 254 253 252 252 251 251 250 250 250 249 248 248 247
295 295 296 296 296 295 295 294 293 293 292 291 290 290 289 288 288 287 286 286 285 285 285 285 285 285 285 285 284 284 283 283 282 282 281 280 279 278 278 278 277 277 277 276 276 275 274 272 270 268 267 265 264 263 263 263 262 261 260 259 258 258 257 257 258 258 258 259 259 260 259 258 257 256 254 253 251 250 250 249 249 248 248 248 247 246